Theta_e
322 325 328 330 331 334 335 336 338 348 345 339 334 333 332 335 335 337 341 342 341 341 341 339 337 337 333 330 333 334 332 331 332 331 330 330 332 333 331 333 335 338 339
320 324 329 330 331 333 335 337 340 343 342 337 337 334 334 333 336 339 341 342 341 340 339 338 337 334 329 332 333 331 331 331 332 328 327 320 325 328 331 333 336 338 340
318 323 327 328 331 332 335 337 341 341 340 340 337 338 338 338 334 335 336 339 339 338 338 337 335 334 335 334 333 332 329 326 330 332 328 320 316 321 329 334 335 338 342
320 324 326 327 330 331 335 339 339 338 338 339 337 336 329 328 333 334 337 336 336 335 335 336 334 335 334 333 332 331 331 330 328 331 329 331 331 318 319 334 335 337 339
322 323 327 328 330 333 335 337 338 338 338 338 338 333 333 332 334 334 334 336 337 335 333 334 334 333 332 333 332 330 331 331 330 326 327 329 328 329 321 323 329 337 339
322 325 327 329 330 333 334 336 336 337 338 337 337 337 336 333 332 332 331 331 334 333 333 332 333 334 334 332 331 332 331 333 333 332 329 330 328 323 330 330 330 331 335
324 324 325 327 329 330 332 333 334 334 336 336 336 337 338 335 333 331 332 330 331 329 331 333 333 335 335 334 333 333 333 333 332 332 328 330 331 340 334 333 329 327 331
324 325 326 327 327 329 331 331 333 333 334 334 336 337 337 332 332 332 332 331 331 329 334 334 333 334 334 334 336 335 333 334 333 332 334 335 335 336 340 337 330 324 329
324 325 326 327 328 330 330 332 332 331 332 334 336 337 336 333 332 334 334 331 332 330 332 332 333 334 334 334 334 334 334 334 332 334 336 338 335 334 345 346 337 330 322
323 325 326 327 329 330 331 333 332 330 332 335 335 335 336 335 334 333 331 331 332 330 331 331 334 334 334 333 334 336 334 334 332 332 333 333 334 338 338 338 340 340 328
323 324 325 328 329 331 331 332 329 330 331 333 335 335 335 334 334 333 331 331 332 331 329 329 331 332 332 334 335 333 331 331 332 334 332 334 336 338 335 338 337 334 330
323 324 325 327 328 329 329 328 329 329 330 332 333 334 334 335 334 333 332 331 330 331 329 329 329 330 332 334 333 330 328 329 330 329 333 333 333 337 338 335 333 330 328
322 323 325 325 327 327 327 326 327 327 329 331 332 333 333 333 333 333 334 332 330 330 329 330 329 330 331 333 333 332 328 328 331 333 334 334 336 335 335 335 331 327 327
322 323 324 325 326 326 325 324 326 327 328 329 331 332 333 334 334 333 332 332 331 330 332 332 331 331 330 332 332 330 328 330 332 332 334 334 333 335 334 334 333 331 327
322 323 323 325 326 325 324 323 325 326 328 328 329 331 333 334 333 332 332 332 332 332 332 332 331 332 331 329 330 329 333 332 330 331 331 331 327 321 328 336 331 332 328
322 322 324 325 325 324 323 323 324 325 328 327 328 330 330 331 332 332 332 332 332 332 331 331 331 331 328 307 315 325 331 333 333 332 330 331 326 317 313 315 316 329 329
322 323 324 326 326 325 323 323 324 325 326 327 327 328 329 330 331 331 331 331 332 334 332 332 332 331 330 305 306 311 331 334 333 334 333 329 328 326 326 313 313 313 312
324 324 326 327 327 325 324 324 325 323 324 326 326 328 328 330 331 332 331 333 334 334 333 333 333 331 326 303 303 309 333 334 333 333 333 333 330 330 331 329 326 327 327
327 327 328 329 328 325 324 323 323 322 322 323 326 327 328 329 329 330 333 334 334 334 333 333 333 332 328 302 303 316 328 332 331 333 334 332 333 307 309 331 329 328 322
329 328 329 329 327 326 325 324 322 321 321 322 326 328 329 329 329 332 332 335 334 332 331 332 334 321 330 301 302 315 328 331 330 333 333 308 325 302 307 333 331 328 328
329 330 330 328 327 326 325 323 322 321 322 323 326 328 330 331 332 334 333 334 332 331 331 332 333 332 327 323 300 305 333 332 329 330 329 327 300 301 305 312 335 328 330
328 329 328 328 328 327 325 323 322 323 323 322 324 327 330 329 331 334 332 332 331 331 331 332 331 332 330 314 303 301 312 317 331 330 330 319 297 299 301 309 298 305 316
327 329 329 327 327 327 325 323 324 323 323 323 323 326 329 330 332 332 331 328 329 327 328 328 328 330 331 330 301 301 304 308 328 332 313 299 298 298 305 297 297 301 330
327 329 329 326 326 327 325 325 326 324 323 323 324 325 327 329 331 330 329 327 325 323 324 326 327 328 330 330 330 328 326 308 323 309 319 313 311 301 314 314 312 325 328
326 329 328 327 326 327 326 326 325 324 323 324 324 324 324 328 329 330 329 327 329 322 322 323 326 327 328 329 321 323 330 331 322 325 326 327 328 327 328 328 325 325 325
326 328 329 328 327 327 326 326 325 324 324 324 324 322 321 323 327 329 329 297 304 305 303 304 314 323 308 303 303 305 302 299 301 324 326 326 326 325 326 325 324 324 319
Wind_Speed
22 17 14 10 9 9 12 17 17 17 15 14 13 10 9 7 6 5 6 8 8 7 8 6 6 7 6 6 5 7 9 6 6 5 5 6 7 8 6 7 6 7 8
19 15 8 7 8 10 12 13 16 19 15 11 8 8 6 5 3 3 4 6 6 7 6 7 7 7 7 9 8 9 6 6 7 5 6 5 5 7 8 4 7 7 6
20 15 6 7 8 10 12 14 15 17 13 13 9 7 6 3 5 5 5 3 6 6 6 6 6 6 5 6 8 7 8 7 7 8 3 4 5 10 6 8 7 8 6
16 11 6 8 9 12 14 17 18 17 14 13 10 8 4 4 2 2 1 3 5 4 4 5 5 5 5 5 4 6 6 6 7 6 6 5 5 8 7 4 6 7 8
11 9 9 11 12 14 16 17 18 16 14 11 10 8 4 4 3 2 3 4 3 3 4 5 5 5 5 4 3 4 6 6 3 5 5 4 5 5 5 7 6 5 4
4 7 11 13 14 16 18 18 17 14 14 11 10 6 6 3 2 2 4 4 4 4 5 5 5 4 4 4 5 5 5 4 4 5 7 5 4 6 4 5 7 6 5
9 13 15 15 17 20 19 17 17 16 13 12 10 8 6 5 4 4 2 3 5 5 6 5 4 3 4 4 4 5 4 5 4 5 6 7 4 4 5 5 7 4 2
10 14 16 18 20 20 19 18 16 15 13 11 10 7 6 4 3 2 3 3 6 5 6 5 4 3 3 3 3 3 4 5 4 6 6 3 5 2 5 5 8 5 4
13 16 18 18 19 18 17 17 16 14 12 11 9 7 6 4 5 6 5 5 5 6 6 4 3 2 2 2 4 5 7 5 3 2 5 6 3 4 5 5 7 7 6
15 17 17 18 17 17 16 15 14 13 12 11 9 8 6 7 7 6 5 6 6 5 6 4 2 1 2 3 4 4 4 4 4 4 5 4 4 3 2 5 4 2 8
17 17 17 17 17 16 15 14 12 13 12 10 9 7 6 7 7 6 7 7 7 6 6 5 4 2 3 3 3 1 3 5 4 4 4 5 6 4 3 4 5 8 7
18 19 18 18 17 16 16 14 12 12 11 10 9 8 6 6 6 7 7 7 7 7 5 5 4 3 2 2 3 6 3 3 5 4 5 6 6 6 7 8 9 9 12
20 19 18 17 16 16 15 14 12 12 11 9 8 7 6 6 6 7 6 7 7 6 5 5 6 5 4 4 5 10 5 3 5 6 5 8 9 8 8 9 11 10 9
20 19 18 17 16 15 14 13 12 11 10 9 7 7 6 6 7 8 7 7 7 7 7 6 7 6 5 6 8 6 5 4 6 5 7 8 5 8 11 10 14 13 12
19 19 18 17 16 15 14 13 12 11 10 9 9 8 6 7 9 9 8 7 7 6 7 8 7 8 6 5 7 4 7 7 7 6 8 7 9 10 8 9 11 14 12
18 19 19 18 17 16 15 13 12 12 11 10 10 8 8 9 9 9 9 8 7 7 7 6 7 7 7 8 8 3 3 7 9 11 10 10 11 11 14 12 11 13 16
18 20 20 18 16 16 15 14 13 13 12 11 11 10 9 10 10 10 10 8 8 7 7 8 7 8 9 5 2 8 3 6 5 10 11 10 8 11 13 14 16 15 13
17 19 17 17 16 16 16 14 14 14 13 12 12 11 11 11 10 10 10 8 7 7 6 5 7 7 8 5 1 5 5 5 8 9 10 13 10 11 14 14 14 12 11
11 13 17 18 17 17 16 16 15 14 14 13 12 12 11 11 10 10 9 8 8 7 5 6 8 10 9 5 5 3 4 6 9 8 10 10 14 9 10 15 16 14 8
10 14 17 18 18 17 17 16 16 15 14 14 14 13 12 11 10 10 9 8 8 7 6 6 8 9 10 6 6 5 6 8 6 10 12 13 13 8 5 11 14 14 13
12 16 18 17 18 18 18 17 16 15 14 14 13 13 12 11 9 9 8 7 7 8 6 7 8 8 9 7 1 3 8 6 8 9 9 9 9 8 8 3 9 11 12
14 17 17 17 18 19 18 17 17 15 15 14 14 13 11 9 9 9 8 8 8 8 8 9 8 9 8 8 4 2 5 5 9 8 9 7 8 8 8 4 7 11 12
13 16 17 18 17 19 19 19 17 17 16 15 14 13 13 10 11 10 10 8 8 7 8 8 8 8 8 8 8 6 6 6 5 8 11 13 9 7 9 8 8 10 8
12 15 18 19 19 19 19 18 18 18 17 16 15 13 13 12 11 10 9 8 7 7 7 8 8 8 9 9 8 7 6 7 8 9 8 7 5 5 10 7 5 5 6
10 14 17 18 20 19 19 18 19 19 17 16 15 14 12 12 11 10 9 9 8 6 7 7 8 9 9 9 11 10 9 8 9 9 7 8 8 7 7 7 7 6 6
9 13 16 17 20 20 20 19 20 19 18 17 14 13 12 12 11 11 8 8 8 8 6 1 3 8 6 15 12 8 8 12 14 8 9 9 9 10 9 9 8 7 6
Wind_Direction
281 281 275 270 222 189 185 189 181 171 169 167 169 174 189 193 212 233 244 254 258 265 248 242 228 223 225 235 234 228 226 230 219 221 209 203 209 211 209 211 187 208 202
279 275 276 227 202 171 180 180 174 165 165 159 162 177 189 192 223 232 246 262 265 252 245 236 225 204 221 222 226 227 228 220 208 209 199 176 184 203 210 187 204 199 215
276 276 240 203 175 162 164 163 158 156 154 142 138 145 144 173 206 201 230 227 243 242 234 227 226 203 231 230 229 234 231 228 191 204 204 175 201 169 183 204 192 192 201
261 251 215 177 170 154 154 150 149 152 143 159 156 163 184 211 84 249 194 233 230 222 226 215 191 205 225 226 229 210 221 183 193 195 208 257 277 179 170 202 203 199 193
246 247 172 158 151 145 144 147 147 150 147 145 150 162 184 148 172 192 208 257 184 193 169 175 189 217 226 193 209 170 211 191 182 200 213 201 251 250 193 167 175 193 174
171 143 135 142 142 142 144 144 145 142 148 150 144 150 145 166 210 201 236 213 141 178 160 168 192 207 215 183 182 184 205 198 205 207 224 187 215 195 195 187 165 156 165
153 145 145 144 145 146 144 144 145 146 151 151 156 155 149 152 173 228 204 185 152 197 145 170 192 191 205 161 185 190 204 216 224 213 228 185 225 208 221 193 148 119 110
137 139 143 143 144 144 147 144 146 149 155 158 161 152 149 162 170 126 115 154 156 144 152 186 188 175 167 147 168 212 220 206 216 220 229 214 223 206 236 171 153 130 133
142 138 141 144 144 145 145 146 148 151 158 162 157 156 159 153 95 113 151 158 129 130 175 193 173 186 179 165 175 199 200 193 204 190 224 221 246 243 213 159 170 158 145
140 141 143 145 142 143 143 147 149 153 161 160 165 156 155 149 130 140 144 154 138 167 173 186 194 215 166 196 185 209 187 195 166 178 196 221 220 159 168 128 122 182 138
143 146 146 144 144 143 147 149 152 159 162 168 164 151 157 148 147 147 155 159 169 180 184 171 186 195 175 166 187 63 214 172 154 138 178 197 165 139 121 80 105 85 96
146 148 148 150 147 150 152 153 157 163 166 167 166 158 154 164 150 151 151 162 180 190 172 160 171 180 158 142 108 116 84 107 135 129 160 151 141 122 131 117 112 101 106
147 149 152 154 153 153 157 157 166 164 162 162 157 146 149 159 167 149 147 169 171 176 170 151 150 145 115 103 81 75 64 93 123 152 128 134 144 135 126 121 118 116 109
152 153 157 157 155 158 162 158 168 158 157 162 153 140 144 147 153 142 147 159 167 166 154 140 120 123 102 85 87 86 99 81 89 148 121 107 119 125 131 130 134 129 128
157 159 162 160 156 163 161 162 162 158 158 153 145 130 129 136 143 142 148 147 159 151 138 138 131 116 124 92 103 111 111 127 118 95 82 67 75 60 98 132 135 133 128
160 164 165 160 163 165 166 162 162 156 159 154 137 137 137 136 137 141 142 147 133 136 136 136 132 127 89 55 20 22 103 107 104 102 103 100 93 74 75 71 82 136 140
167 170 167 164 165 167 166 165 161 160 160 160 145 144 144 139 144 144 143 137 143 136 135 141 142 122 119 114 35 338 110 107 102 107 116 116 110 119 101 85 80 76 80
176 172 167 164 167 167 166 166 162 165 165 163 157 151 152 142 141 146 137 142 148 143 140 148 133 128 109 138 150 324 108 110 111 112 114 119 130 116 127 121 115 109 105
192 182 167 164 165 168 165 169 167 171 168 166 163 162 154 150 146 134 141 149 154 138 134 138 147 128 132 161 191 170 127 138 110 119 113 122 121 122 140 132 128 116 99
199 180 175 163 166 170 168 171 173 175 173 170 169 169 159 156 153 134 138 149 153 146 141 134 126 120 131 159 200 255 137 118 114 115 99 62 107 80 68 131 131 135 142
195 180 174 174 167 168 170 178 176 180 176 169 170 172 168 166 156 143 143 147 164 135 134 111 125 127 128 138 118 337 138 142 127 123 123 110 107 97 78 114 142 135 140
196 183 176 173 172 171 174 181 179 180 176 170 172 171 170 186 162 159 152 150 142 148 145 138 148 130 146 130 125 41 43 125 141 140 126 124 96 77 47 74 108 120 149
196 183 180 172 178 177 181 181 178 180 175 173 174 171 175 187 162 166 162 157 168 156 160 160 142 140 146 146 110 88 121 37 145 121 92 109 117 117 96 104 149 180 166
204 187 186 179 178 184 188 186 176 182 175 176 176 175 181 179 175 179 175 174 177 172 174 165 154 149 151 146 157 154 152 137 117 129 131 128 129 50 97 148 187 161 154
213 196 196 185 180 184 190 187 180 181 178 178 178 180 185 187 179 199 183 186 182 186 180 171 163 165 171 164 162 165 168 174 137 146 154 173 183 178 175 174 172 156 160
277 210 202 191 187 184 188 187 184 183 182 183 182 184 185 183 189 191 177 59 29 124 65 2 210 164 125 132 153 154 112 117 146 190 180 186 190 193 186 187 182 184 186